Home   Weather   Charlotte   Past weeks

Flag for USA Past Weather in Charlotte, North Carolina, USA — Yesterday and Last 2 Weeks

Now
57 °F

Passing clouds.


Feels Like: 56 °F
Forecast: 35 / 57 °F
Wind: 7 mph from West

Location: Charlotte / Douglas International Airport

Current Time: Dec 2, 2016 at 3:01:18 pm

Latest Report: Dec 2, 2016 at 1:52 pm


Visibility: 10 mi

Pressure: 30.14 "Hg

Humidity: 34%

Dew Point: 29 °F

Location of CharlotteLocation

Past Weather in Charlotte — Graph

°F

Charlotte Temperature Yesterday

Maximum temperature yesterday: 64 °F (at 2:52 pm)
Minimum temperature yesterday: 43 °F (at 11:52 pm)
Average temperature yesterday: 54 °F

High & Low Weather Summary for the Past Weeks

 TemperatureHumidityPressure
High77 °F (Nov 18, 2:52 pm)94% (Nov 29, 9:57 pm)30.36 "Hg (Nov 29, 9:57 pm)
Low27 °F (Nov 21, 5:52 am)11% (Nov 20, 3:52 pm)29.71 "Hg (Nov 30, 8:52 pm)
Average53 °F56%30.10 "Hg
* Reported Nov 17 1:52 pm — Dec 2 1:52 pm, Charlotte, Weather by CustomWeather, © 2016

Note: Actual official high and low records may vary slightly from our data, if they occured in-between our weather recording intervals... More about our weather records

Advertising

Charlotte Weather History for the Previous 24 Hours

Scroll right to see more
 ConditionsComfort  
Time TempWeatherWind HumidityBarometerVisibility
1:52 pm
Fri, Dec 2
57 °FPassing clouds.7 mph34%30.14 "Hg10 mi
12:52 pm55 °FPassing clouds.7 mph37%30.15 "Hg10 mi
11:52 am53 °FPassing clouds.5 mph39%30.17 "Hg10 mi
10:52 am51 °FScattered clouds.5 mph44%30.20 "Hg10 mi
9:52 am48 °FScattered clouds.5 mph56%30.19 "Hg10 mi
8:52 am44 °FPassing clouds.No wind71%30.18 "Hg10 mi
7:52 am34 °FPassing clouds.No wind85%30.17 "Hg10 mi
6:52 am36 °FPassing clouds.No wind85%30.13 "Hg10 mi
5:52 am34 °FClear.No wind88%30.11 "Hg10 mi
4:52 am34 °FClear.No wind88%30.09 "Hg10 mi
3:52 am40 °FClear.No wind70%30.06 "Hg10 mi
2:52 am40 °FClear.3 mph70%30.04 "Hg10 mi
1:52 am41 °FClear.6 mph65%30.03 "Hg10 mi
12:52 am44 °FClear.8 mph60%30.02 "Hg10 mi
11:52 pm
Thu, Dec 1
43 °FClear.8 mph62%30.02 "Hg10 mi
10:52 pm45 °FClear.7 mph58%30.01 "Hg10 mi
9:52 pm47 °FClear.7 mph54%29.99 "Hg10 mi
8:52 pm46 °FClear.7 mph61%29.97 "Hg10 mi
7:52 pm49 °FClear.6 mph64%29.95 "Hg10 mi
6:52 pm54 °FClear.5 mph49%29.93 "Hg10 mi
5:52 pm54 °FPassing clouds.5 mph51%29.91 "Hg10 mi
4:52 pm59 °FSunny.8 mph38%29.90 "Hg10 mi
3:52 pm62 °FSunny.8 mph31%29.88 "Hg10 mi
Weather by CustomWeather, © 2016

See weather overviewHow to use our weather pages